[[{"header":{"parameterUnit":"m.s-1","parameterCategory":1,"la1":30.2991,"la2":30.254,"lo1":-89.0895,"lo2":-89.0444,"dy":0.0017,"dx":0.0017,"nx":28,"ny":28,"refTime":"2025-02-28T03:00:00:Z","depth":0,"parameterNumber":2,"parameterNumberName":"U-component_of_WINDS"},"data":[0,0,0,0,0,0,0,0,0,0,0,0,0,0,0,0,0,0,0,0,0,0,0,0,0,0,0,0,0,0,0,0,0,0,0,0,0,0,0,0,0,0,0,0,0,0,0,0,0,0,0,0,0,0,0,0,0,0,0.8033,0.8033,0,0.8082,0.8082,0.8083,0.8088,0.8087,0.8087,0.8086,0.8136,0.8138,0.814,0,0,0,0,0,0,0,0,0,0,0,0,0,0.7944,0.7946,0.8033,0.8033,0.8034,0.8082,0.8082,0.8083,0.8088,0.8087,0.8087,0.8086,0.8135,0.8138,0.814,0,0,0,0,0,0,0,0,0,0,0,0,0,0.7987,0.7947,0.8033,0.8042,0.8043,0.8082,0.8082,0.8083,0.8088,0.8087,0.8086,0.8086,0.8135,0.8137,0.814,0.8172,0,0,0.8148,0.8149,0,0,0,0,0,0,0,0,0.7985,0.799,0.804,0.8042,0.8043,0.8078,0.8069,0.8113,0.8088,0.8071,0.8086,0.8085,0.8117,0.8121,0.8132,0.8174,0.8176,0.8148,0.815,0.8151,0.8152,0,0,0,0,0,0,0,0.7982,0.7988,0.8052,0.8041,0.8043,0.8044,0.805,0.8078,0.8098,0.8072,0.8073,0.8079,0.8118,0.813,0.8133,0.8177,0.8148,0.8151,0.8152,0.8153,0.825,0.8251,0,0,0,0,0,0,0.7977,0.7986,0.8051,0.8054,0.8011,0.8047,0.8052,0.8067,0.8097,0.8101,0.8079,0.8079,0.8125,0.813,0.8135,0.8176,0.8151,0.8154,0.8155,0.8249,0.825,0.8251,0,0,0,0,0,0,0.7975,0.7983,0.8049,0.802,0.8028,0.8049,0.8066,0.8069,0.808,0.8103,0.8106,0.8087,0.8125,0.8131,0.8163,0.8177,0.8155,0.8157,0.8248,0.8249,0.8251,0.8256,0,0,0,0,0,0,0.7972,0.7982,0.7994,0.802,0.803,0.8075,0.8067,0.807,0.8085,0.8085,0.8111,0.8115,0.8125,0.8159,0.8166,0.8181,0.816,0.8247,0.8248,0.825,0.8255,0.8258,0.826,0,0,0,0,0,0.7969,0.7993,0.7994,0.8002,0.8045,0.8076,0.8082,0.8093,0.8086,0.8099,0.8113,0.8114,0.8175,0.8162,0.817,0.8186,0.8246,0.8248,0.825,0.8254,0.8257,0.826,0,0,0,0,0,0,0.7967,0.7996,0.7998,0.8031,0.8051,0.8077,0.8093,0.8096,0.8118,0.8117,0.813,0.8135,0.8167,0.818,0.8165,0.8219,0.821,0.8213,0.821,0.8213,0.8216,0.8212,0.8162,0,0,0,0,0,0.797,0.7993,0.8017,0.8044,0.8054,0.8072,0.8086,0.8093,0.8114,0.8122,0.8139,0.816,0.8184,0.8199,0.8222,0.8257,0.8263,0.8272,0.8274,0.8276,0.8279,0.83,0.8305,0.8258,0.8258,0.8258,0,0,0.7977,0.7996,0.801,0.8044,0.806,0.8084,0.8079,0.8104,0.8122,0.8126,0.8157,0.8171,0.8195,0.8229,0.8244,0.824,0.8294,0.8279,0.8281,0.8283,0.8303,0.8307,0.8311,0.8259,0.8259,0.8259,0,0,0.8002,0.8018,0.8043,0.806,0.8085,0.8097,0.8104,0.8129,0.8139,0.8171,0.8175,0.8197,0.8237,0.8255,0.8269,0.8303,0.8305,0.8311,0.8324,0.8344,0.8348,0.8351,0.8364,0.8369,0.8314,0.8314,0.8314,0,0.8008,0.8043,0.8055,0.8081,0.8096,0.8103,0.8128,0.8144,0.8176,0.8187,0.8181,0.8234,0.825,0.8289,0.8298,0.8309,0.8317,0.8307,0.8346,0.835,0.8353,0.8366,0.8371,0.8314,0.8314,0.8314,0.8314,0,0.8049,0.8074,0.8091,0.8122,0.814,0.8165,0.8182,0.8198,0.8205,0.8217,0.8251,0.8271,0.8299,0.8309,0.8315,0.8349,0.8346,0.8344,0.8334,0.8358,0.837,0.8375,0.8315,0.8315,0.8314,0.8314,0,0,0.8073,0.8112,0.8118,0.8133,0.8162,0.8182,0.8208,0.8236,0.8251,0.8273,0.8296,0.8331,0.833,0.8346,0.8354,0.8372,0.8399,0.8367,0.8368,0.8373,0.844,0.8442,0.8447,0.8401,0.8402,0.8403,0.8438,0,0.8101,0.8148,0.8161,0.8201,0.8225,0.8233,0.8256,0.8277,0.829,0.8313,0.8327,0.8353,0.8348,0.8358,0.8376,0.8392,0.8413,0.839,0.8423,0.8424,0.8417,0.8454,0.8455,0.8488,0.8443,0.8444,0.8445,0,0.8141,0.8165,0.8207,0.8236,0.8246,0.8267,0.8294,0.8316,0.834,0.8349,0.8368,0.8375,0.8404,0.8394,0.8434,0.8418,0.8433,0.8443,0.8445,0.8448,0.8436,0.8459,0.8498,0.8503,0.8452,0.8452,0.8451,0,0.8155,0.8197,0.8229,0.8241,0.8275,0.8289,0.8304,0.8328,0.8345,0.8369,0.8381,0.8408,0.8423,0.8445,0.8459,0.845,0.8499,0.8489,0.8508,0.8507,0.8517,0.8516,0.856,0.8526,0.8526,0.8526,0.8526,0,0.8185,0.8211,0.8236,0.8255,0.8285,0.83,0.8329,0.8344,0.8366,0.8389,0.8397,0.8419,0.8437,0.8461,0.8473,0.8505,0.8512,0.852,0.8523,0.8519,0.8519,0.8529,0.8527,0.8527,0.8527,0.8527,0.8527,0,0.8205,0.8223,0.8258,0.8287,0.8295,0.8316,0.8342,0.8361,0.8376,0.8405,0.8412,0.8435,0.8464,0.8481,0.8518,0.8526,0.8562,0.8564,0.8554,0.8555,0.8573,0.8571,0.8625,0.8633,0.8594,0.8594,0.8594,0,0.8224,0.8244,0.8276,0.8293,0.8308,0.8333,0.8351,0.8367,0.8385,0.8416,0.8433,0.8463,0.8487,0.8534,0.8554,0.8582,0.8585,0.8602,0.8589,0.8586,0.8586,0.8585,0.8588,0.8604,0.8604,0.8605,0.8605,0,0.8255,0.8263,0.8288,0.8317,0.8338,0.8361,0.8384,0.8397,0.8418,0.8438,0.8468,0.8488,0.8526,0.8556,0.8587,0.8603,0.8608,0.8609,0.8615,0.8611,0.8605,0.861,0.856,0.8608,0.8607,0.8607,0.8607,0.8607,0.8275,0.8294,0.832,0.8349,0.8368,0.839,0.8411,0.8428,0.8454,0.8486,0.8495,0.8527,0.8553,0.8595,0.8612,0.8638,0.8635,0.8643,0.8645,0.8647,0.8648,0.8601,0.8644,0.8643,0.8643,0.8643,0.8643,0,0.8307,0.8325,0.8351,0.8384,0.8406,0.841,0.8436,0.8455,0.8484,0.8508,0.8532,0.8568,0.8598,0.8621,0.8652,0.8669,0.8672,0.8676,0.8675,0.8679,0.8649,0.8641,0.8673,0.8673,0.8673,0.8673,0.8673,0.8673,0.8327,0.836,0.8371,0.8415,0.8432,0.8464,0.8479,0.85,0.852,0.856,0.8585,0.86,0.8624,0.8657,0.8685,0.8691,0.8702,0.8706,0.8713,0.8684,0.8681,0.8678,0.867,0.8709,0.8709,0.8741,0.8741,0.8742]},{"header":{"parameterUnit":"m.s-1","parameterCategory":1,"la1":30.2991,"la2":30.254,"lo1":-89.0895,"lo2":-89.0444,"dy":0.0017,"dx":0.0017,"nx":28,"ny":28,"refTime":"2025-02-28T03:00:00:Z","depth":0,"parameterNumber":3,"parameterNumberName":"V-component_of_WINDS"},"data":[0,0,0,0,0,0,0,0,0,0,0,0,0,0,0,0,0,0,0,0,0,0,0,0,0,0,0,0,0,0,0,0,0,0,0,0,0,0,0,0,0,0,0,0,0,0,0,0,0,0,0,0,0,0,0,0,0,0,-4.1094,-4.1094,0,-4.1152,-4.1153,-4.1154,-4.1141,-4.114,-4.1139,-4.1138,-4.1196,-4.1198,-4.1201,0,0,0,0,0,0,0,0,0,0,0,0,0,-4.097,-4.0973,-4.1094,-4.1094,-4.1095,-4.1152,-4.1153,-4.1154,-4.1142,-4.114,-4.1139,-4.1138,-4.1195,-4.1198,-4.1201,0,0,0,0,0,0,0,0,0,0,0,0,0,-4.1026,-4.0974,-4.1093,-4.1096,-4.1097,-4.1152,-4.1153,-4.1154,-4.1142,-4.114,-4.1139,-4.1137,-4.1194,-4.1198,-4.1202,-4.1257,0,0,-4.1213,-4.1215,0,0,0,0,0,0,0,0,-4.1023,-4.103,-4.1095,-4.1096,-4.1097,-4.1138,-4.1131,-4.1188,-4.1142,-4.1125,-4.1138,-4.1136,-4.1178,-4.1183,-4.1197,-4.126,-4.1262,-4.1214,-4.1216,-4.1218,-4.1219,0,0,0,0,0,0,0,-4.1019,-4.1028,-4.1117,-4.1096,-4.1097,-4.1094,-4.11,-4.1142,-4.1159,-4.1126,-4.1125,-4.1133,-4.1178,-4.1194,-4.1199,-4.1263,-4.1213,-4.1217,-4.1219,-4.1221,-4.1376,-4.1378,0,0,0,0,0,0,-4.1014,-4.1025,-4.1115,-4.1118,-4.1055,-4.1097,-4.1104,-4.1126,-4.1159,-4.1163,-4.1134,-4.1132,-4.1188,-4.1194,-4.1201,-4.1269,-4.1217,-4.1221,-4.1223,-4.1374,-4.1376,-4.1378,0,0,0,0,0,0,-4.1012,-4.1023,-4.1112,-4.1072,-4.1083,-4.1101,-4.1126,-4.1128,-4.1144,-4.1165,-4.1168,-4.1147,-4.1187,-4.1195,-4.1244,-4.1271,-4.1223,-4.1226,-4.1372,-4.1375,-4.1377,-4.1405,0,0,0,0,0,0,-4.1008,-4.1022,-4.1043,-4.1072,-4.1085,-4.1155,-4.1128,-4.1131,-4.1151,-4.1149,-4.1178,-4.1181,-4.1186,-4.1238,-4.1248,-4.1275,-4.1229,-4.137,-4.1373,-4.1376,-4.1402,-4.1409,-4.1414,0,0,0,0,0,-4.1004,-4.1048,-4.1044,-4.1055,-4.1112,-4.1157,-4.1164,-4.117,-4.1153,-4.1175,-4.1189,-4.118,-4.1266,-4.1243,-4.1254,-4.1283,-4.1368,-4.1372,-4.1376,-4.1399,-4.1407,-4.1414,0,0,0,0,0,0,-4.102,-4.1052,-4.1048,-4.1103,-4.1127,-4.1154,-4.1182,-4.1178,-4.1207,-4.1204,-4.1209,-4.1216,-4.1266,-4.1279,-4.1253,-4.1339,-4.1315,-4.1321,-4.1329,-4.1336,-4.1342,-4.1338,-4.1232,0,0,0,0,0,-4.1031,-4.1064,-4.109,-4.1135,-4.1148,-4.1163,-4.1183,-4.1185,-4.1211,-4.1221,-4.1238,-4.1262,-4.1295,-4.1316,-4.1347,-4.1404,-4.141,-4.1429,-4.1435,-4.144,-4.1446,-4.1478,-4.1486,-4.1392,-4.1392,-4.1392,0,0,-4.1051,-4.1073,-4.1093,-4.1139,-4.1159,-4.1194,-4.1172,-4.1209,-4.1235,-4.1226,-4.1274,-4.1287,-4.1315,-4.1368,-4.1392,-4.138,-4.1473,-4.1445,-4.1449,-4.1452,-4.1483,-4.1492,-4.15,-4.1395,-4.1394,-4.1394,0,0,-4.1108,-4.1127,-4.1168,-4.1188,-4.1218,-4.1228,-4.1238,-4.1267,-4.1276,-4.1324,-4.1318,-4.1349,-4.1405,-4.1425,-4.1443,-4.1509,-4.1502,-4.1519,-4.1551,-4.1582,-4.1589,-4.1596,-4.162,-4.1629,-4.1524,-4.1524,-4.1524,0,-4.1129,-4.1182,-4.1189,-4.1228,-4.1249,-4.1243,-4.1285,-4.1304,-4.1342,-4.1357,-4.1343,-4.1415,-4.1433,-4.1491,-4.1508,-4.1522,-4.1533,-4.1515,-4.1588,-4.1594,-4.1601,-4.1624,-4.1633,-4.1526,-4.1526,-4.1525,-4.1525,0,-4.1209,-4.1246,-4.1275,-4.1314,-4.1338,-4.1377,-4.139,-4.1414,-4.1415,-4.1426,-4.1475,-4.1497,-4.1533,-4.1547,-4.1548,-4.1606,-4.1598,-4.1586,-4.1562,-4.1611,-4.1633,-4.1642,-4.1528,-4.1528,-4.1527,-4.1527,0,0,-4.1276,-4.1319,-4.133,-4.1348,-4.1382,-4.141,-4.145,-4.1487,-4.1507,-4.1534,-4.1568,-4.1616,-4.1606,-4.1626,-4.1629,-4.1656,-4.1709,-4.1641,-4.1642,-4.1654,-4.1775,-4.1784,-4.1795,-4.1705,-4.1706,-4.1708,-4.1773,0,-4.1335,-4.1407,-4.1415,-4.1479,-4.1514,-4.151,-4.1545,-4.1569,-4.1581,-4.1612,-4.1625,-4.166,-4.1643,-4.1655,-4.1682,-4.1697,-4.1733,-4.1692,-4.1736,-4.1738,-4.173,-4.1806,-4.1816,-4.1876,-4.1782,-4.1783,-4.1784,0,-4.1415,-4.1446,-4.1513,-4.1544,-4.1559,-4.159,-4.1625,-4.1655,-4.1682,-4.1689,-4.1713,-4.1713,-4.1754,-4.1728,-4.1786,-4.1758,-4.1776,-4.1786,-4.1789,-4.1793,-4.1764,-4.1813,-4.1896,-4.1905,-4.1798,-4.1797,-4.1796,0,-4.1458,-4.1516,-4.1565,-4.158,-4.1617,-4.1639,-4.1655,-4.1682,-4.1704,-4.1734,-4.1748,-4.1783,-4.1801,-4.1828,-4.1837,-4.1817,-4.1895,-4.1869,-4.1901,-4.1901,-4.1918,-4.1917,-4.2005,-4.1929,-4.1929,-4.1929,-4.1929,0,-4.1524,-4.1566,-4.1585,-4.1615,-4.1662,-4.1671,-4.1717,-4.1731,-4.1755,-4.1788,-4.1786,-4.1817,-4.1827,-4.1859,-4.1867,-4.1914,-4.1922,-4.1929,-4.193,-4.1929,-4.1928,-4.1942,-4.1938,-4.1931,-4.1931,-4.193,-4.193,0,-4.158,-4.1595,-4.1647,-4.1678,-4.1687,-4.172,-4.1747,-4.1776,-4.1788,-4.1829,-4.1839,-4.1858,-4.1896,-4.1908,-4.1954,-4.1959,-4.2014,-4.2011,-4.2005,-4.2005,-4.2037,-4.2034,-4.2137,-4.2152,-4.2066,-4.2067,-4.2067,0,-4.1622,-4.1654,-4.1689,-4.1711,-4.1729,-4.1764,-4.1787,-4.1798,-4.1821,-4.1857,-4.1881,-4.192,-4.1951,-4.2012,-4.2029,-4.2064,-4.2063,-4.2096,-4.2068,-4.2066,-4.2064,-4.2062,-4.2066,-4.2102,-4.2103,-4.2103,-4.2104,0,-4.1694,-4.17,-4.1734,-4.177,-4.1798,-4.1827,-4.1855,-4.1873,-4.1888,-4.1915,-4.1954,-4.1979,-4.2026,-4.2064,-4.21,-4.2116,-4.2113,-4.2113,-4.2123,-4.2122,-4.2117,-4.2121,-4.202,-4.2111,-4.211,-4.2109,-4.2109,-4.2109,-4.1744,-4.1774,-4.1803,-4.1841,-4.1864,-4.189,-4.192,-4.1936,-4.197,-4.201,-4.2014,-4.2057,-4.2085,-4.2134,-4.2152,-4.2185,-4.2175,-4.2189,-4.2192,-4.2196,-4.2199,-4.2112,-4.2192,-4.2191,-4.2191,-4.2191,-4.2191,0,-4.1817,-4.1837,-4.1872,-4.1912,-4.1942,-4.1937,-4.1968,-4.1994,-4.2032,-4.2059,-4.209,-4.2136,-4.2174,-4.2195,-4.2232,-4.2255,-4.2254,-4.2264,-4.2263,-4.2267,-4.2205,-4.2193,-4.2264,-4.2264,-4.2264,-4.2264,-4.2264,-4.2264,-4.1859,-4.1908,-4.1918,-4.1979,-4.1998,-4.2041,-4.206,-4.2084,-4.2106,-4.2158,-4.219,-4.2204,-4.2229,-4.2268,-4.2302,-4.2307,-4.2321,-4.2333,-4.2337,-4.2278,-4.2271,-4.2264,-4.2253,-4.2335,-4.2335,-4.2396,-4.2396,-4.2397]}]]